Regional Weather Roundup
Issued by NWS

Home | Current Version | Previous Version | Graphics & Text | Print | Product List | Glossary On
Versions: 1 2 3 4 5 6 7 8 9 10 11 12 13 14 15 16 17 18 19 20 21 22 23 24 25 26 27 28 29 30 31 32 33 34 35 36 37 38 39 40 41 42 43 44 45 46 47 48 49 50
000
ASUS43 KLMK 202002
RWRKY
KENTUCKY REGIONAL WEATHER ROUNDUP
NATIONAL WEATHER SERVICE LOUISVILLE KY
300 PM EST TUE FEB 20 2018

NOTE "FAIR" INDICATES FEW OR NO CLOUDS BELOW 12,000 FEET
WITH NO SIGNIFICANT WEATHER AND/OR OBSTRUCTIONS TO VISIBILITY.

KYZ001>023-026-027-061>063-070>075-202100-
WESTERN AND SOUTH CENTRAL KENTUCKY

CITY           SKY/WX    TMP DP  RH WIND       PRES   REMARKS
PADUCAH        PTSUNNY   75  58  55 S12G31    30.06S
HENDERSON      PTSUNNY   76  58  53 S24G30    30.06S
OWENSBORO      FAIR      79  57  46 S18       30.07F
HOPKINSVILLE   FAIR      74  57  55 S21G32    30.13S
BOWLING GREEN  FAIR      79  59  50 SW20G33   30.15F
GLASGOW        NOT AVBL
$$

KYZ024-025-028>034-038-045-046-053-202100-
NORTH CENTRAL KENTUCKY

CITY           SKY/WX    TMP DP  RH WIND       PRES   REMARKS
LOUISVILLE/SDF CLOUDY    81  53  37 S22G37    30.09F
LOUISVILLE/LOU FAIR      80  54  40 S23G35    30.10F
FORT KNOX      FAIR      77  55  46 S23G36    30.12S
$$

KYZ035>037-039>044-047>052-055>060-089>105-202100-
NORTHEAST KENTUCKY

CITY           SKY/WX    TMP DP  RH WIND       PRES   REMARKS
LEXINGTON      FAIR      79  53  40 SW24G37   30.16F
COVINGTON      PTSUNNY   78  55  44 SW14G32   30.09F
FRANKFORT      FAIR      78  53  41 S22G30    30.13F
$$

KYZ054-064>069-076>088-106>120-202100-
SOUTHEAST KENTUCKY

CITY           SKY/WX    TMP DP  RH WIND       PRES   REMARKS
JACKSON        FAIR      79  52  38 S9        30.23F
LONDON         FAIR      76  55  48 SW18G32   30.24F
SOMERSET       NOT AVBL
MIDDLESBORO    FAIR      76  55  47 SW12G24   30.27S
MONTICELLO     NOT AVBL
$$




USA.gov is the U.S. government's official web portal to all federal, state and local government web resources and services.